TimeCDT,TemperatureF,Dew PointF,Humidity,Sea Level PressureIn,VisibilityMPH,Wind Direction,Wind SpeedMPH,Gust SpeedMPH,PrecipitationIn,Events,Conditions,WindDirDegrees,DateUTC
12:53 AM,59.0,55.0,87,30.03,10.0,Calm,Calm,-,N/A,,Scattered Clouds,0,2013-06-18 05:53:00
1:53 AM,60.1,54.0,80,30.03,10.0,ESE,4.6,-,N/A,,Clear,110,2013-06-18 06:53:00
2:53 AM,57.9,54.0,87,30.04,10.0,ESE,5.8,-,N/A,,Clear,110,2013-06-18 07:53:00
3:53 AM,57.0,54.0,89,30.04,10.0,SE,5.8,-,N/A,,Clear,130,2013-06-18 08:53:00
4:53 AM,55.9,54.0,93,30.05,10.0,SE,6.9,-,N/A,,Clear,140,2013-06-18 09:53:00
5:53 AM,55.0,53.1,93,30.07,10.0,SSE,5.8,-,N/A,,Partly Cloudy,150,2013-06-18 10:53:00
6:53 AM,57.0,54.0,89,30.08,10.0,SE,5.8,-,N/A,,Scattered Clouds,140,2013-06-18 11:53:00
7:53 AM,61.0,55.0,81,30.07,10.0,South,6.9,-,N/A,,Scattered Clouds,170,2013-06-18 12:53:00
8:53 AM,64.9,55.9,73,30.07,10.0,South,12.7,-,N/A,,Partly Cloudy,180,2013-06-18 13:53:00
9:53 AM,66.9,57.0,70,30.07,10.0,South,10.4,-,N/A,,Partly Cloudy,190,2013-06-18 14:53:00
10:53 AM,70.0,55.9,61,30.05,10.0,South,6.9,-,N/A,,Partly Cloudy,190,2013-06-18 15:53:00
11:53 AM,73.0,57.0,57,30.03,10.0,SSW,9.2,-,N/A,,Scattered Clouds,200,2013-06-18 16:53:00
12:53 PM,73.9,54.0,50,30.01,10.0,SSE,6.9,-,N/A,,Scattered Clouds,160,2013-06-18 17:53:00
1:53 PM,73.9,53.1,48,30.00,10.0,Variable,3.5,-,N/A,,Mostly Cloudy,0,2013-06-18 18:53:00
2:53 PM,77.0,53.1,43,29.99,10.0,Variable,6.9,-,N/A,,Mostly Cloudy,0,2013-06-18 19:53:00
3:53 PM,75.9,53.1,45,29.97,10.0,SSW,6.9,-,N/A,,Mostly Cloudy,210,2013-06-18 20:53:00
4:53 PM,77.0,53.1,43,29.95,10.0,SW,8.1,-,N/A,,Mostly Cloudy,220,2013-06-18 21:53:00
5:53 PM,78.1,52.0,40,29.94,10.0,SW,10.4,-,N/A,,Mostly Cloudy,220,2013-06-18 22:53:00
6:53 PM,77.0,52.0,42,29.93,10.0,Calm,Calm,-,N/A,,Mostly Cloudy,0,2013-06-18 23:53:00
7:53 PM,78.1,51.1,39,29.91,10.0,SE,8.1,-,N/A,,Mostly Cloudy,130,2013-06-19 00:53:00
8:53 PM,75.0,54.0,48,29.90,10.0,SE,6.9,-,N/A,,Mostly Cloudy,130,2013-06-19 01:53:00
9:53 PM,71.1,53.1,53,29.92,10.0,SE,5.8,-,N/A,,Scattered Clouds,140,2013-06-19 02:53:00
10:53 PM,69.1,53.1,57,29.92,10.0,SE,8.1,-,N/A,,Mostly Cloudy,130,2013-06-19 03:53:00
11:53 PM,66.9,53.1,61,29.91,10.0,SSE,6.9,-,N/A,,Mostly Cloudy,150,2013-06-19 04:53:00